{"data":{"norad_id":37189,"intl_designator":"2010-054B","name":"GLOBALSTAR M074","alt_names":[],"object_type":"PAYLOAD","status":"ACTIVE","operator":null,"country":"GLOB","launch_date":"2010-10-19","launch_site_code":"TYMSC","launch_vehicle":null,"mission":null,"orbit_class":"UNKNOWN","rcs_meters":4.8795,"size_class":null,"mass_kg":null,"dimensions":null,"purposes":["comms"],"wikipedia_slug":null,"has_3d_model":false,"image_url":null,"decayed_at":null,"tle_current":{"epoch":"2026-09-20T02:15:37.024992Z","epoch_age_seconds":49553,"freshness":"FRESH","line1":"1 37189U 10054B   26263.09417853 -.00000101  00000+0  15479-4 0  9996","line2":"2 37189  52.0010 179.0114 0000567  53.9641 319.9243 12.62263195735145","mean_motion":12.62263195,"eccentricity":5.67e-5,"inclination_deg":52.001,"raan_deg":179.0114,"arg_perigee_deg":53.9641,"mean_anomaly_deg":319.9243,"bstar":1.5479e-5,"rev_number":73514,"period_min":114.08080388496,"perigee_km":1413.1751334162,"apogee_km":1414.0587183114,"semimajor_km":7791.7539258638,"source":"CELESTRAK","updated_at":"2026-09-20T09:00:45.036918Z"}}}